Regional Weather Roundup
Issued by NWS

Home | Current Version | Previous Version | Graphics & Text | Print | Product List | Glossary On
Versions: 1 2 3 4 5 6 7 8 9 10 11 12 13 14 15 16 17 18 19 20 21 22 23 24 25 26 27 28 29 30 31 32 33 34 35 36 37 38 39 40 41 42 43 44 45 46 47 48 49 50
000
ASUS43 KLOT 271908
RWRIL

ILLINOIS REGIONAL WEATHER ROUNDUP
NATIONAL WEATHER SERVICE CHICAGO/ROMEOVILLE IL
200 PM CDT MON MAR 27 2017

NOTE: "FAIR" INDICATES FEW OR NO CLOUDS BELOW 12,000 FEET WITH NO
SIGNIFICANT WEATHER AND/OR OBSTRUCTIONS TO VISIBILITY.

* THESE STATIONS ARE NOT UNDER NWS QUALITY CONTROL. THEY ALSO MAY NOT
  REPORT WEATHER SUCH AS PRECIPITATION OR FOG.

ILZ001-002-007-009-015-016-024-272000-
NORTHWEST ILLINOIS

CITY           SKY/WX    TMP DP  RH WIND       PRES   REMARKS
MOLINE         LGT RAIN  52  45  77 CALM      29.91F
STERLING*      CLOUDY    50  47  89 CALM      29.92F
SAVANNA*       CLOUDY    50  45  84 CALM      29.93S
$$

ILZ003-004-008-010-011-017-018-272000-
NORTH CENTRAL ILLINOIS

CITY           SKY/WX    TMP DP  RH WIND       PRES   REMARKS
ROCKFORD       CLOUDY    51  44  77 SE5       29.94F
FREEPORT*      CLOUDY    48  44  87 CALM      29.94F
ROCHELLE*      CLOUDY    49  47  91 CALM      29.92F FOG
DE KALB*       CLOUDY    49  47  94 CALM      29.93F FOG
PERU*          CLOUDY    51  47  86 CALM      29.90F
$$

ILZ005-006-012>014-019>023-272000-
NORTHEAST ILLINOIS

CITY           SKY/WX    TMP DP  RH WIND       PRES   REMARKS
CHICAGO-OHARE  CLOUDY    49  43  80 E6        29.93S
CHICAGO-MIDWAY CLOUDY    48  44  86 NE8       29.93F
AURORA         CLOUDY    51  48  89 NE6       29.91F FOG
LANSING*       CLOUDY    48  46  93 N6        29.92F
JOLIET*        CLOUDY    55  50  82 CALM      29.91F
WAUKEGAN       CLOUDY    43  41  93 E6        29.93F
DUPAGE AIRPORT FOG       48  48 100 E6        29.92S VSB 1
KANKAKEE*      LGT RAIN  56  51  82 CALM      29.91F
WHEELING       CLOUDY    46  43  89 E5        29.94F
MORRIS*        CLOUDY    53  48  84 CALM      29.90F
ROMEOVILLE*    CLOUDY    53  50  89 CALM      29.91F
NORTHERLY ISL    N/A     41  39  93 NE1         N/A
$$

LMZ740>746-272000-
SOUTHERN LAKE MICHIGAN

STATION/POSITION SKY/WX   TEMP    WIND        PRES    VSBY  WAVE
                          AIR SEA DIR/SP/G                  HT/PER
                          (F)     (DEG/KT/KT) (MB)    (MI)  (FT/S)
HARRISON CRIB              40      90/  2/  3   N/A
BURNHAM HARBOR             41      CALM  /  5   N/A
CALUMET HARBOR             40      60/  4/  6 1013.3F
BURNS HARBOR               41      70/  8/  9 1014.2F
MICHIGAN CITY              39      40/  6/  6   N/A
$$

ILZ025>027-034>036-040-047-049-050-058-095>099-272000-
WEST-CENTRAL ILLINOIS

CITY           SKY/WX    TMP DP  RH WIND       PRES   REMARKS
QUINCY         LGT RAIN  53  51  93 NE12      29.86F
GALESBURG*     DRIZZLE   51  48  89 CALM      29.89F
MACOMB*        LGT RAIN  52  51  97 CALM      29.90F
JACKSONVILLE*  LGT RAIN  53  52  95 NE9       29.86F
PITTSFIELD*    CLOUDY    53  51  95 NE9       29.87F
$$

ILZ028>032-037-038-041>044-048-051>054-059>061-272000-
CENTRAL ILLINOIS

CITY           SKY/WX    TMP DP  RH WIND       PRES   REMARKS
PONTIAC        DRIZZLE   54  53  97 SE3       29.91F
BLOOMINGTON    LGT RAIN  53  51  93 NE7       29.90F
DECATUR        LGT RAIN  60  50  69 E13       29.85F
PEORIA         CLOUDY    52  51  97 VRB3      29.89F
LACON*         RAIN      51  49  92 E3        29.89F
LINCOLN*       LGT RAIN  55  54  97 NE8       29.87F
SPRINGFIELD    CLOUDY    54  52  93 NE8       29.86F FOG
TAYLORVILLE    LGT RAIN  55  54  94 NE9       29.84F
$$

ILZ033-039-045-046-055>057-062-063-272000-
EAST-CENTRAL ILLINOIS

CITY           SKY/WX    TMP DP  RH WIND       PRES   REMARKS
CHAMPAIGN      CLOUDY    62  48  60 E14       29.87F
RANTOUL*       CLOUDY    59  54  82 E7        29.88F
MATTOON        LGT RAIN  54  54 100 E7        29.84F
PARIS*         LGT RAIN  56  54  92 NE5       29.87F
$$

ILZ079-100>102-272000-
SOUTHWEST ILLINOIS

CITY           SKY/WX    TMP DP  RH WIND       PRES   REMARKS
ALTON          DRIZZLE   52  52 100 N9        29.84F
BELLEVILLE     CLOUDY    57  56  99 W7        29.81S
CAHOKIA*       CLOUDY    57  52  83 N6        29.82F
SPARTA*        CLOUDY    60  55  84 SW6       29.83F
$$

ILZ064>066-069>071-074>076-080>082-084>086-088>090-092>094-272000-
SOUTH-CENTRAL ILLINOIS

CITY           SKY/WX    TMP DP  RH WIND       PRES   REMARKS
CARBONDALE     LGT RAIN  61  56  83 SW5       29.83F
CAIRO*         CLOUDY    57  57  98 SE9       29.82F
EFFINGHAM*     CLOUDY    57  57  99 E9        29.85F
MT. VERNON     PTSUNNY   64  55  72 S13       29.83S
CENTRALIA*     CLOUDY    63  57  80 SW13      29.81F
SALEM*         CLOUDY    65  57  76 S10       29.82F
METROPOLIS*    TSTM      58  57  96 SE5       29.86F
$$

ILZ067-068-072-073-078-083-087-091-272000-
SOUTHEAST ILLINOIS

CITY           SKY/WX    TMP DP  RH WIND       PRES   REMARKS
LAWRENCEVILLE  CLOUDY    62  57  83 SE7       29.85F
FLORA*         CLOUDY    65  59  82 SE5       29.83F
FAIRFIELD*     CLOUDY    66  56  71 S8        29.82F
HARRISBURG*    LGT RAIN  62  57  85 S10       29.83F
ROBINSON*      CLOUDY    59  55  85 SE8       29.87F
CARMI*         LGT RAIN  63  56  78 SW12      29.83F
$$

ABBREVIATIONS USED IN REMARKS
   TC - TEMPERATURE IN CELSIUS
  WCI - WIND CHILL INDEX
   HX - HEAT INDEX
  VSB - VISIBILITY
$$





USA.gov is the U.S. government's official web portal to all federal, state and local government web resources and services.